QPF
0.00 0.00 0.00 0.00 0.01 0.01 0.00 0.00 0.00 0.00 0.00 0.01 0.01 0.02 0.03 0.03 0.03 0.04 0.03 0.03 0.03 0.03 0.04 0.05 0.06 0.04 0.02 0.01 0.01 0.01 0.01 0.01 0.01 0.02 0.02 0.03 0.02 0.01 0.01 0.00 0.00 0.00 0.01
0.00 0.00 0.00 0.00 0.00 0.00 0.00 0.00 0.00 0.00 0.00 0.00 0.01 0.02 0.02 0.02 0.02 0.02 0.02 0.02 0.02 0.02 0.04 0.05 0.06 0.06 0.04 0.03 0.02 0.01 0.02 0.01 0.02 0.01 0.01 0.02 0.02 0.01 0.01 0.01 0.00 0.01 0.01
0.00 0.00 0.00 0.00 0.00 0.00 0.00 0.00 0.00 0.00 0.00 0.01 0.01 0.02 0.02 0.02 0.02 0.02 0.01 0.02 0.02 0.02 0.03 0.04 0.05 0.06 0.06 0.05 0.03 0.02 0.01 0.02 0.02 0.01 0.01 0.01 0.01 0.01 0.01 0.01 0.00 0.00 0.01
0.00 0.00 0.00 0.00 0.00 0.00 0.00 0.00 0.00 0.00 0.00 0.01 0.01 0.01 0.01 0.02 0.02 0.02 0.02 0.01 0.01 0.02 0.03 0.04 0.04 0.04 0.04 0.04 0.04 0.03 0.02 0.02 0.03 0.02 0.01 0.01 0.01 0.01 0.02 0.01 0.00 0.01 0.01
0.00 0.00 0.00 0.00 0.00 0.00 0.00 0.00 0.00 0.00 0.00 0.00 0.01 0.01 0.02 0.02 0.02 0.02 0.02 0.02 0.02 0.03 0.03 0.03 0.03 0.03 0.03 0.03 0.02 0.02 0.02 0.02 0.03 0.03 0.02 0.01 0.01 0.02 0.02 0.02 0.01 0.01 0.02
0.00 0.00 0.00 0.00 0.00 0.00 0.00 0.00 0.00 0.01 0.01 0.01 0.01 0.01 0.02 0.02 0.02 0.02 0.02 0.02 0.02 0.02 0.03 0.03 0.02 0.03 0.03 0.03 0.02 0.02 0.02 0.02 0.02 0.02 0.02 0.02 0.02 0.01 0.02 0.02 0.02 0.02 0.02
0.00 0.00 0.01 0.01 0.01 0.01 0.00 0.00 0.00 0.01 0.01 0.01 0.01 0.01 0.01 0.01 0.01 0.02 0.02 0.01 0.02 0.02 0.02 0.03 0.03 0.03 0.03 0.03 0.03 0.02 0.02 0.02 0.01 0.02 0.02 0.02 0.01 0.01 0.02 0.02 0.02 0.02 0.01
0.00 0.00 0.01 0.00 0.00 0.00 0.00 0.00 0.00 0.00 0.01 0.01 0.01 0.01 0.01 0.01 0.02 0.02 0.01 0.01 0.02 0.02 0.02 0.03 0.04 0.04 0.04 0.03 0.03 0.02 0.02 0.01 0.01 0.01 0.02 0.02 0.01 0.01 0.02 0.02 0.03 0.03 0.02
0.00 0.00 0.00 0.00 0.00 0.00 0.00 0.00 0.00 0.00 0.00 0.00 0.00 0.00 0.01 0.01 0.01 0.01 0.01 0.02 0.02 0.02 0.02 0.03 0.04 0.04 0.04 0.03 0.03 0.03 0.02 0.02 0.02 0.02 0.01 0.02 0.02 0.01 0.02 0.02 0.02 0.03 0.03
0.00 0.00 0.00 0.00 0.00 0.00 0.00 0.00 0.00 0.00 0.00 0.01 0.01 0.00 0.00 0.01 0.01 0.01 0.02 0.02 0.02 0.01 0.01 0.02 0.03 0.05 0.04 0.03 0.03 0.03 0.02 0.02 0.03 0.03 0.02 0.02 0.02 0.02 0.02 0.01 0.01 0.02 0.03
0.00 0.00 0.00 0.00 0.00 0.01 0.00 0.00 0.00 0.00 0.00 0.00 0.00 0.00 0.00 0.01 0.01 0.02 0.02 0.02 0.02 0.02 0.02 0.02 0.02 0.04 0.05 0.04 0.04 0.04 0.03 0.03 0.03 0.03 0.02 0.02 0.02 0.02 0.02 0.02 0.02 0.02 0.02
0.00 0.00 0.00 0.00 0.01 0.01 0.01 0.01 0.00 0.00 0.00 0.00 0.00 0.00 0.00 0.01 0.01 0.01 0.01 0.01 0.01 0.01 0.01 0.02 0.02 0.03 0.04 0.04 0.05 0.05 0.04 0.04 0.03 0.03 0.03 0.03 0.02 0.02 0.02 0.02 0.03 0.03 0.03
0.00 0.00 0.00 0.00 0.01 0.01 0.01 0.01 0.00 0.00 0.00 0.00 0.00 0.00 0.00 0.01 0.01 0.01 0.01 0.01 0.01 0.01 0.02 0.02 0.02 0.02 0.02 0.03 0.04 0.05 0.05 0.05 0.04 0.03 0.03 0.03 0.03 0.03 0.03 0.03 0.03 0.04 0.03
0.00 0.00 0.00 0.00 0.00 0.00 0.00 0.00 0.00 0.00 0.00 0.00 0.00 0.00 0.01 0.01 0.01 0.01 0.01 0.01 0.01 0.01 0.02 0.02 0.02 0.02 0.02 0.03 0.04 0.05 0.05 0.06 0.05 0.04 0.04 0.04 0.04 0.04 0.03 0.04 0.04 0.04 0.03
0.00 0.00 0.00 0.00 0.00 0.00 0.00 0.00 0.00 0.00 0.00 0.00 0.00 0.01 0.01 0.01 0.01 0.01 0.01 0.01 0.01 0.01 0.01 0.02 0.02 0.02 0.02 0.03 0.04 0.05 0.05 0.06 0.06 0.05 0.04 0.04 0.05 0.05 0.04 0.04 0.04 0.04 0.03
0.00 0.00 0.01 0.01 0.00 0.00 0.00 0.00 0.00 0.00 0.00 0.01 0.01 0.01 0.01 0.01 0.01 0.01 0.01 0.01 0.01 0.01 0.01 0.01 0.02 0.02 0.02 0.03 0.04 0.04 0.05 0.06 0.06 0.06 0.04 0.04 0.05 0.06 0.06 0.05 0.04 0.04 0.04
0.01 0.01 0.01 0.00 0.00 0.01 0.01 0.01 0.01 0.01 0.01 0.01 0.01 0.01 0.01 0.02 0.01 0.01 0.01 0.01 0.01 0.01 0.01 0.01 0.02 0.02 0.03 0.04 0.04 0.04 0.05 0.06 0.06 0.05 0.05 0.05 0.05 0.05 0.05 0.06 0.06 0.05 0.04
0.02 0.01 0.01 0.01 0.01 0.01 0.01 0.01 0.01 0.01 0.01 0.01 0.01 0.01 0.01 0.02 0.02 0.02 0.01 0.01 0.01 0.01 0.02 0.02 0.02 0.02 0.02 0.04 0.04 0.05 0.05 0.06 0.05 0.04 0.04 0.04 0.04 0.05 0.05 0.06 0.06 0.05 0.05
0.03 0.02 0.02 0.02 0.02 0.02 0.01 0.01 0.01 0.01 0.02 0.02 0.02 0.01 0.01 0.01 0.01 0.02 0.02 0.01 0.01 0.01 0.01 0.02 0.03 0.03 0.03 0.04 0.04 0.04 0.05 0.06 0.05 0.04 0.04 0.05 0.05 0.06 0.06 0.05 0.05 0.05 0.05
0.03 0.03 0.03 0.03 0.03 0.02 0.02 0.01 0.01 0.01 0.03 0.03 0.02 0.01 0.01 0.01 0.01 0.01 0.01 0.01 0.01 0.01 0.01 0.02 0.02 0.03 0.04 0.05 0.05 0.05 0.05 0.06 0.05 0.04 0.05 0.05 0.05 0.05 0.05 0.05 0.05 0.05 0.04
0.03 0.03 0.02 0.02 0.02 0.02 0.03 0.02 0.01 0.01 0.03 0.03 0.02 0.01 0.01 0.01 0.01 0.01 0.01 0.01 0.01 0.01 0.01 0.01 0.02 0.02 0.04 0.04 0.05 0.06 0.06 0.05 0.05 0.04 0.04 0.04 0.04 0.04 0.04 0.04 0.04 0.05 0.04
0.02 0.02 0.02 0.02 0.02 0.02 0.02 0.02 0.01 0.02 0.02 0.03 0.03 0.01 0.01 0.00 0.01 0.01 0.01 0.01 0.01 0.01 0.01 0.02 0.02 0.03 0.03 0.04 0.04 0.05 0.05 0.05 0.04 0.03 0.02 0.02 0.02 0.03 0.03 0.03 0.03 0.04 0.04
0.01 0.02 0.02 0.01 0.01 0.01 0.01 0.02 0.02 0.02 0.02 0.03 0.04 0.02 0.01 0.01 0.01 0.01 0.01 0.01 0.01 0.01 0.02 0.02 0.03 0.03 0.03 0.03 0.04 0.05 0.05 0.04 0.03 0.02 0.02 0.02 0.01 0.01 0.02 0.02 0.02 0.02 0.03
0.01 0.01 0.01 0.01 0.01 0.01 0.01 0.02 0.02 0.02 0.01 0.02 0.04 0.03 0.01 0.01 0.01 0.01 0.01 0.01 0.01 0.02 0.02 0.03 0.03 0.04 0.04 0.04 0.04 0.05 0.05 0.05 0.04 0.02 0.02 0.02 0.01 0.01 0.01 0.01 0.02 0.02 0.03
0.01 0.01 0.01 0.01 0.01 0.01 0.01 0.02 0.03 0.02 0.02 0.01 0.02 0.03 0.02 0.02 0.01 0.01 0.02 0.02 0.01 0.02 0.03 0.03 0.04 0.04 0.04 0.04 0.04 0.05 0.05 0.05 0.04 0.03 0.02 0.02 0.02 0.02 0.01 0.02 0.02 0.02 0.02
0.01 0.01 0.01 0.01 0.01 0.01 0.01 0.01 0.03 0.03 0.02 0.01 0.01 0.02 0.02 0.01 0.01 0.01 0.02 0.02 0.02 0.02 0.03 0.04 0.04 0.04 0.04 0.04 0.04 0.04 0.04 0.05 0.04 0.03 0.03 0.02 0.02 0.02 0.02 0.02 0.02 0.02 0.02
MSLP
1011.83 1012.15 1012.41 1012.59 1012.75 1012.92 1013.14 1013.47 1013.90 1014.42 1014.97 1015.49 1015.92 1016.21 1016.34 1016.31 1016.17 1016.00 1015.84 1015.77 1015.79 1015.91 1016.08 1016.22 1016.28 1016.17 1015.85 1015.33 1014.64 1013.85 1013.06 1012.38 1011.90 1011.69 1011.80 1012.21 1012.88 1013.76 1014.75 1015.76 1016.71 1017.56 1018.26
1011.46 1011.79 1012.06 1012.25 1012.39 1012.52 1012.69 1012.96 1013.35 1013.83 1014.37 1014.90 1015.35 1015.67 1015.83 1015.83 1015.71 1015.55 1015.40 1015.32 1015.36 1015.50 1015.71 1015.92 1016.05 1016.03 1015.81 1015.36 1014.72 1013.94 1013.13 1012.40 1011.85 1011.57 1011.60 1011.97 1012.63 1013.53 1014.57 1015.67 1016.73 1017.68 1018.48
1011.08 1011.44 1011.73 1011.91 1012.02 1012.11 1012.22 1012.41 1012.73 1013.15 1013.65 1014.17 1014.63 1014.97 1015.17 1015.21 1015.13 1014.98 1014.85 1014.79 1014.84 1015.00 1015.25 1015.52 1015.73 1015.80 1015.67 1015.31 1014.74 1014.01 1013.21 1012.45 1011.85 1011.49 1011.45 1011.75 1012.36 1013.25 1014.32 1015.47 1016.62 1017.67 1018.58
1010.70 1011.10 1011.41 1011.59 1011.67 1011.69 1011.73 1011.83 1012.04 1012.38 1012.82 1013.29 1013.74 1014.11 1014.34 1014.43 1014.39 1014.29 1014.20 1014.16 1014.23 1014.42 1014.70 1015.03 1015.31 1015.47 1015.45 1015.19 1014.71 1014.05 1013.29 1012.53 1011.89 1011.47 1011.35 1011.56 1012.10 1012.93 1013.99 1015.17 1016.37 1017.51 1018.52
1010.33 1010.77 1011.11 1011.30 1011.35 1011.31 1011.24 1011.23 1011.32 1011.55 1011.89 1012.31 1012.73 1013.10 1013.37 1013.51 1013.53 1013.49 1013.43 1013.43 1013.53 1013.75 1014.06 1014.44 1014.79 1015.05 1015.13 1014.99 1014.62 1014.05 1013.35 1012.61 1011.96 1011.49 1011.28 1011.39 1011.84 1012.60 1013.60 1014.77 1015.99 1017.19 1018.29
1009.98 1010.48 1010.86 1011.06 1011.08 1010.96 1010.80 1010.65 1010.61 1010.71 1010.94 1011.27 1011.65 1012.01 1012.30 1012.49 1012.57 1012.59 1012.59 1012.63 1012.76 1013.00 1013.35 1013.77 1014.18 1014.52 1014.70 1014.68 1014.43 1013.97 1013.35 1012.66 1012.01 1011.50 1011.22 1011.23 1011.57 1012.22 1013.15 1014.27 1015.49 1016.73 1017.91
1009.68 1010.24 1010.66 1010.87 1010.86 1010.68 1010.41 1010.14 1009.96 1009.91 1010.02 1010.25 1010.57 1010.90 1011.20 1011.42 1011.56 1011.63 1011.68 1011.77 1011.93 1012.20 1012.57 1013.02 1013.48 1013.89 1014.17 1014.25 1014.12 1013.77 1013.25 1012.62 1011.99 1011.45 1011.11 1011.04 1011.27 1011.81 1012.65 1013.71 1014.91 1016.17 1017.41
1009.43 1010.05 1010.50 1010.71 1010.68 1010.44 1010.08 1009.69 1009.37 1009.18 1009.16 1009.29 1009.53 1009.82 1010.11 1010.35 1010.53 1010.65 1010.75 1010.87 1011.06 1011.35 1011.74 1012.21 1012.71 1013.17 1013.52 1013.70 1013.68 1013.44 1013.01 1012.45 1011.85 1011.32 1010.94 1010.79 1010.93 1011.37 1012.11 1013.10 1014.27 1015.54 1016.83
1009.24 1009.90 1010.36 1010.57 1010.50 1010.21 1009.76 1009.27 1008.84 1008.53 1008.38 1008.41 1008.56 1008.80 1009.06 1009.30 1009.50 1009.65 1009.79 1009.95 1010.16 1010.46 1010.86 1011.35 1011.86 1012.36 1012.77 1013.02 1013.09 1012.94 1012.60 1012.12 1011.58 1011.06 1010.67 1010.47 1010.54 1010.90 1011.57 1012.49 1013.63 1014.89 1016.22
1009.09 1009.75 1010.20 1010.38 1010.27 1009.92 1009.41 1008.84 1008.31 1007.90 1007.65 1007.58 1007.65 1007.82 1008.05 1008.27 1008.47 1008.65 1008.81 1009.00 1009.23 1009.55 1009.96 1010.45 1010.98 1011.49 1011.93 1012.24 1012.37 1012.30 1012.05 1011.64 1011.16 1010.68 1010.29 1010.08 1010.11 1010.42 1011.03 1011.90 1013.00 1014.26 1015.61
1008.96 1009.56 1009.96 1010.08 1009.92 1009.51 1008.95 1008.32 1007.72 1007.24 1006.91 1006.75 1006.75 1006.86 1007.04 1007.24 1007.44 1007.62 1007.81 1008.02 1008.28 1008.62 1009.04 1009.54 1010.07 1010.60 1011.05 1011.39 1011.56 1011.55 1011.36 1011.02 1010.60 1010.17 1009.82 1009.63 1009.65 1009.94 1010.51 1011.35 1012.42 1013.68 1015.04
1008.81 1009.31 1009.60 1009.63 1009.39 1008.92 1008.31 1007.64 1007.00 1006.47 1006.09 1005.88 1005.81 1005.87 1006.00 1006.17 1006.37 1006.56 1006.78 1007.02 1007.32 1007.69 1008.14 1008.65 1009.18 1009.71 1010.16 1010.51 1010.69 1010.72 1010.57 1010.29 1009.93 1009.56 1009.26 1009.11 1009.16 1009.45 1010.02 1010.85 1011.90 1013.14 1014.51
1008.61 1008.96 1009.10 1009.00 1008.66 1008.13 1007.48 1006.78 1006.13 1005.58 1005.17 1004.92 1004.81 1004.82 1004.92 1005.08 1005.27 1005.49 1005.74 1006.03 1006.38 1006.80 1007.28 1007.80 1008.35 1008.86 1009.30 1009.63 1009.81 1009.84 1009.72 1009.47 1009.17 1008.86 1008.63 1008.53 1008.63 1008.96 1009.55 1010.38 1011.43 1012.66 1014.02
1008.35 1008.51 1008.47 1008.21 1007.76 1007.15 1006.46 1005.75 1005.10 1004.55 1004.14 1003.87 1003.74 1003.73 1003.82 1003.97 1004.17 1004.42 1004.72 1005.07 1005.49 1005.96 1006.48 1007.04 1007.58 1008.08 1008.49 1008.79 1008.94 1008.95 1008.82 1008.60 1008.34 1008.09 1007.93 1007.91 1008.07 1008.46 1009.09 1009.95 1011.01 1012.24 1013.59
1008.02 1007.97 1007.73 1007.30 1006.72 1006.04 1005.31 1004.60 1003.96 1003.43 1003.04 1002.79 1002.66 1002.65 1002.73 1002.89 1003.12 1003.42 1003.77 1004.20 1004.68 1005.21 1005.78 1006.36 1006.90 1007.37 1007.74 1007.98 1008.08 1008.05 1007.90 1007.69 1007.45 1007.26 1007.17 1007.24 1007.49 1007.96 1008.65 1009.55 1010.64 1011.87 1013.21
1007.65 1007.37 1006.92 1006.32 1005.62 1004.86 1004.10 1003.40 1002.79 1002.31 1001.95 1001.73 1001.63 1001.63 1001.73 1001.92 1002.19 1002.53 1002.95 1003.44 1003.98 1004.57 1005.18 1005.76 1006.29 1006.72 1007.02 1007.19 1007.23 1007.13 1006.95 1006.73 1006.53 1006.39 1006.38 1006.54 1006.90 1007.46 1008.24 1009.21 1010.33 1011.59 1012.93
1007.24 1006.74 1006.09 1005.33 1004.52 1003.70 1002.93 1002.25 1001.69 1001.25 1000.95 1000.78 1000.72 1000.75 1000.89 1001.11 1001.41 1001.80 1002.27 1002.81 1003.41 1004.03 1004.64 1005.21 1005.70 1006.07 1006.30 1006.39 1006.34 1006.19 1005.98 1005.75 1005.58 1005.51 1005.60 1005.86 1006.34 1007.02 1007.90 1008.95 1010.14 1011.43 1012.78
1006.81 1006.11 1005.29 1004.40 1003.50 1002.64 1001.87 1001.23 1000.72 1000.35 1000.12 1000.00 999.99 1000.07 1000.23 1000.48 1000.82 1001.24 1001.74 1002.31 1002.91 1003.53 1004.13 1004.66 1005.08 1005.38 1005.53 1005.53 1005.42 1005.22 1004.98 1004.78 1004.65 1004.67 1004.87 1005.26 1005.87 1006.69 1007.69 1008.84 1010.10 1011.43 1012.81
1006.36 1005.49 1004.53 1003.54 1002.58 1001.71 1000.97 1000.37 999.93 999.64 999.47 999.41 999.45 999.57 999.76 1000.04 1000.39 1000.81 1001.31 1001.86 1002.45 1003.03 1003.57 1004.03 1004.37 1004.58 1004.65 1004.59 1004.43 1004.21 1003.99 1003.84 1003.80 1003.93 1004.26 1004.81 1005.57 1006.53 1007.66 1008.92 1010.26 1011.64 1013.03
1005.88 1004.89 1003.83 1002.78 1001.80 1000.94 1000.23 999.69 999.32 999.10 999.00 998.99 999.07 999.22 999.43 999.71 1000.05 1000.45 1000.91 1001.41 1001.93 1002.44 1002.89 1003.26 1003.52 1003.65 1003.65 1003.56 1003.39 1003.19 1003.04 1002.98 1003.07 1003.35 1003.84 1004.56 1005.48 1006.60 1007.86 1009.22 1010.63 1012.06 1013.47
1005.40 1004.31 1003.19 1002.11 1001.14 1000.31 999.65 999.17 998.86 998.70 998.65 998.69 998.80 998.96 999.17 999.42 999.72 1000.07 1000.46 1000.88 1001.30 1001.71 1002.06 1002.33 1002.50 1002.57 1002.55 1002.45 1002.32 1002.21 1002.17 1002.25 1002.51 1002.97 1003.65 1004.54 1005.64 1006.90 1008.28 1009.73 1011.21 1012.67 1014.09
1004.91 1003.77 1002.62 1001.54 1000.59 999.81 999.20 998.77 998.52 998.39 998.38 998.44 998.55 998.71 998.89 999.10 999.34 999.61 999.91 1000.22 1000.53 1000.82 1001.06 1001.25 1001.35 1001.39 1001.37 1001.32 1001.29 1001.30 1001.42 1001.69 1002.15 1002.82 1003.70 1004.77 1006.03 1007.42 1008.90 1010.43 1011.94 1013.42 1014.81
1004.44 1003.27 1002.13 1001.07 1000.16 999.41 998.84 998.46 998.23 998.13 998.12 998.18 998.28 998.40 998.54 998.69 998.86 999.04 999.23 999.43 999.63 999.81 999.96 1000.07 1000.14 1000.18 1000.21 1000.25 1000.35 1000.53 1000.85 1001.34 1002.02 1002.90 1003.97 1005.21 1006.60 1008.10 1009.65 1011.21 1012.74 1014.21 1015.58
1004.00 1002.84 1001.72 1000.70 999.82 999.11 998.57 998.20 997.98 997.87 997.85 997.88 997.94 998.02 998.10 998.19 998.28 998.37 998.47 998.57 998.67 998.76 998.84 998.91 998.97 999.05 999.16 999.33 999.59 999.97 1000.50 1001.21 1002.10 1003.17 1004.41 1005.80 1007.29 1008.85 1010.44 1012.01 1013.52 1014.95 1016.28
1003.62 1002.49 1001.40 1000.42 999.57 998.89 998.36 997.99 997.75 997.61 997.55 997.54 997.55 997.58 997.61 997.64 997.66 997.69 997.71 997.73 997.76 997.79 997.83 997.89 997.98 998.12 998.33 998.64 999.07 999.64 1000.37 1001.28 1002.36 1003.59 1004.97 1006.45 1008.00 1009.59 1011.17 1012.71 1014.19 1015.57 1016.84
1003.32 1002.22 1001.17 1000.23 999.42 998.75 998.22 997.83 997.55 997.37 997.26 997.20 997.17 997.15 997.13 997.11 997.10 997.08 997.06 997.04 997.04 997.05 997.08 997.16 997.30 997.52 997.83 998.27 998.86 999.59 1000.49 1001.56 1002.77 1004.12 1005.57 1007.10 1008.66 1010.24 1011.78 1013.27 1014.68 1016.00 1017.22
Thickness
5576 5576 5576 5575 5575 5574 5574 5574 5574 5573 5572 5571 5570 5570 5569 5569 5570 5570 5570 5569 5569 5568 5567 5567 5567 5567 5567 5566 5566 5565 5565 5565 5565 5565 5564 5566 5567 5569 5570 5570 5571 5572 5572
5565 5567 5566 5566 5566 5566 5566 5566 5565 5564 5564 5563 5562 5561 5560 5559 5559 5559 5559 5559 5558 5557 5557 5557 5557 5556 5556 5555 5555 5554 5553 5554 5554 5553 5551 5552 5555 5557 5560 5560 5561 5562 5562
5558 5558 5557 5556 5556 5557 5557 5558 5557 5556 5555 5554 5553 5551 5550 5548 5548 5548 5548 5548 5547 5547 5547 5546 5546 5546 5545 5545 5544 5543 5543 5542 5542 5542 5541 5540 5542 5544 5548 5549 5551 5551 5551
5550 5550 5549 5548 5548 5549 5549 5549 5548 5547 5546 5545 5544 5542 5541 5540 5539 5538 5537 5537 5537 5536 5536 5536 5536 5536 5535 5535 5534 5533 5533 5532 5531 5531 5532 5532 5533 5533 5536 5539 5540 5541 5541
5543 5543 5542 5541 5540 5539 5539 5538 5537 5537 5537 5536 5535 5533 5532 5531 5530 5528 5527 5527 5527 5527 5526 5526 5526 5526 5526 5525 5524 5523 5523 5522 5522 5521 5521 5521 5522 5524 5525 5527 5528 5530 5532
5536 5535 5534 5532 5530 5529 5528 5528 5527 5527 5527 5526 5525 5524 5523 5522 5520 5519 5518 5518 5517 5517 5517 5516 5516 5517 5517 5517 5516 5515 5514 5514 5512 5512 5511 5512 5513 5515 5516 5517 5517 5519 5522
5527 5525 5524 5522 5521 5520 5519 5519 5518 5517 5517 5517 5516 5516 5515 5514 5513 5512 5510 5509 5509 5508 5508 5508 5507 5508 5508 5508 5507 5506 5505 5505 5504 5503 5503 5503 5505 5507 5508 5508 5508 5509 5511
5519 5518 5517 5515 5513 5512 5511 5510 5509 5509 5508 5508 5507 5507 5506 5506 5505 5504 5502 5501 5501 5501 5500 5500 5500 5500 5500 5500 5499 5498 5497 5496 5495 5495 5495 5495 5496 5498 5499 5499 5498 5499 5501
5512 5510 5509 5507 5505 5504 5503 5503 5502 5501 5501 5500 5499 5498 5498 5497 5497 5496 5495 5494 5494 5494 5493 5492 5492 5492 5492 5491 5491 5490 5489 5488 5487 5487 5486 5487 5488 5489 5490 5490 5491 5491 5493
5503 5502 5501 5499 5498 5497 5496 5495 5494 5494 5493 5491 5490 5491 5489 5489 5489 5488 5487 5486 5486 5486 5485 5485 5485 5484 5483 5483 5482 5481 5481 5479 5479 5479 5479 5480 5480 5480 5481 5481 5482 5484 5485
5495 5494 5493 5492 5491 5489 5488 5487 5486 5486 5484 5483 5482 5481 5481 5481 5480 5480 5479 5479 5479 5479 5478 5478 5477 5476 5475 5475 5474 5473 5473 5472 5472 5472 5472 5472 5472 5473 5473 5473 5474 5475 5475
5489 5487 5486 5484 5483 5481 5480 5479 5479 5478 5477 5476 5474 5473 5473 5472 5472 5472 5472 5471 5471 5472 5471 5470 5470 5469 5468 5467 5467 5466 5465 5465 5465 5464 5464 5464 5464 5465 5465 5466 5466 5466 5467
5483 5481 5479 5477 5476 5474 5473 5472 5472 5471 5470 5469 5467 5466 5465 5465 5465 5465 5465 5464 5464 5464 5463 5463 5463 5462 5462 5461 5460 5459 5458 5459 5458 5458 5458 5458 5458 5459 5459 5459 5459 5459 5459
5478 5475 5473 5471 5470 5469 5467 5466 5464 5464 5463 5461 5460 5459 5458 5458 5458 5459 5458 5458 5458 5457 5456 5456 5456 5455 5455 5454 5454 5453 5452 5452 5452 5452 5452 5452 5452 5454 5453 5453 5453 5452 5451
5473 5471 5468 5465 5464 5462 5461 5459 5457 5457 5456 5455 5454 5453 5452 5451 5451 5451 5451 5451 5451 5451 5450 5449 5448 5448 5448 5448 5448 5447 5446 5445 5445 5445 5445 5446 5448 5448 5448 5448 5447 5446 5445
5469 5467 5464 5461 5459 5457 5455 5453 5451 5450 5449 5448 5448 5447 5446 5445 5444 5445 5444 5444 5444 5443 5442 5442 5441 5441 5442 5442 5442 5441 5439 5439 5438 5438 5439 5440 5441 5441 5441 5441 5441 5441 5439
5464 5462 5459 5456 5454 5452 5450 5447 5446 5444 5443 5442 5441 5440 5439 5438 5438 5438 5437 5437 5437 5436 5435 5434 5434 5434 5434 5435 5435 5434 5432 5432 5431 5431 5432 5433 5434 5433 5433 5433 5432 5432 5431
5459 5457 5454 5452 5450 5447 5444 5442 5440 5438 5437 5435 5434 5434 5433 5432 5432 5430 5430 5430 5430 5429 5428 5427 5426 5426 5427 5428 5428 5427 5425 5425 5424 5425 5424 5424 5425 5425 5425 5424 5423 5422 5422
5455 5452 5449 5446 5444 5441 5439 5436 5434 5432 5431 5430 5428 5428 5428 5426 5425 5424 5424 5423 5422 5421 5420 5419 5419 5419 5420 5421 5421 5420 5418 5417 5417 5418 5417 5418 5418 5419 5418 5417 5416 5415 5414
5449 5446 5443 5440 5438 5436 5434 5431 5429 5427 5426 5425 5424 5424 5422 5421 5420 5418 5417 5415 5414 5414 5413 5412 5411 5411 5411 5413 5413 5413 5411 5411 5411 5410 5410 5411 5411 5411 5410 5408 5407 5406 5406
5443 5441 5437 5435 5434 5431 5428 5426 5425 5423 5422 5421 5419 5418 5417 5415 5414 5411 5409 5407 5406 5405 5405 5404 5404 5403 5404 5405 5406 5406 5405 5404 5404 5403 5403 5403 5404 5403 5402 5401 5399 5399 5398
5436 5434 5432 5430 5428 5426 5424 5422 5420 5419 5417 5415 5413 5411 5410 5409 5407 5404 5402 5400 5399 5397 5396 5396 5395 5395 5396 5398 5399 5399 5399 5398 5397 5397 5397 5397 5396 5395 5394 5393 5393 5392 5390
5429 5427 5425 5423 5422 5420 5419 5416 5415 5413 5411 5408 5406 5404 5403 5401 5399 5397 5395 5393 5391 5390 5390 5389 5389 5390 5390 5390 5392 5392 5392 5391 5390 5391 5391 5390 5389 5387 5386 5386 5385 5384 5382
5422 5421 5419 5416 5415 5413 5412 5410 5409 5407 5404 5402 5400 5398 5396 5394 5391 5390 5388 5387 5385 5384 5384 5384 5384 5384 5384 5383 5384 5384 5384 5384 5384 5383 5383 5383 5381 5380 5379 5377 5376 5375 5374
5416 5414 5413 5411 5409 5408 5406 5404 5402 5400 5397 5395 5393 5391 5390 5387 5385 5383 5381 5381 5381 5380 5380 5379 5379 5378 5378 5379 5380 5379 5379 5378 5378 5377 5375 5374 5372 5371 5370 5369 5368 5367 5366
5409 5407 5406 5405 5403 5401 5400 5398 5396 5394 5391 5390 5388 5385 5383 5380 5378 5376 5375 5375 5375 5375 5375 5375 5374 5374 5374 5375 5375 5375 5374 5374 5373 5371 5369 5367 5366 5365 5363 5362 5361 5360 5360